Location: Gleizolles
(44.4833°N, 6.7667°E)
Time: 00:21:54
(UTC+00:00)

Vanguard 2 Rocket - Pass Details

Date: 18 June 2024
Orbit: 555 x 3302 km, 32.9° (Epoch: 24 July)

Event Time Altitude Azimuth Distance (km) Brightness Sun altitude
Rises 00:08:41 0° 190° (S) 6,879 - -21.6°
Reaches altitude 10° 00:15:19 10° 175° (S) 6,122 - -21.5°
Exits shadow 00:20:37 16° 160° (SSE) 5,685 10.4 -21.3°
Maximum altitude 00:27:14 20° 138° (SE) 5,434 10.5 -21.0°
Drops below altitude 10° 00:38:38 10° 101° (E) 5,906 11.1 -20.5°
Sets 00:44:41 0° 86° (E) 6,580 11.6 -20.2°
